Regional Weather Roundup
Issued by NWS

Home | Current Version | Previous Version | Graphics & Text | Print | Product List | Glossary Off
Versions: 1 2 3 4 5 6 7 8 9 10 11 12 13 14 15 16 17 18 19 20 21 22 23 24 25 26 27 28 29 30 31 32 33 34 35 36 37 38 39 40 41 42 43 44 45 46 47 48 49 50

000
ASUS43 KMKX 222021
RWRWI

WISCONSIN REGIONAL WEATHER ROUNDUP
NATIONAL WEATHER SERVICE MILWAUKEE/SULLIVAN WI
300 PM CDT FRI JUL 22 2016

NOTE: "FAIR" INDICATES FEW OR NO CLOUDS BELOW 12,000 FEET WITH NO
SIGNIFICANT WEATHER AND/OR OBSTRUCTIONS TO VISIBILITY.

WIZ001-002-006>008-014>016-023>028-222100-
NORTHWEST WISCONSIN

CITY           SKY/WX    TMP DP  RH WIND       PRES   REMARKS
SUPERIOR ARPT  SUNNY     91  67  45 NW8       29.96F HX  94
ASHLAND        SUNNY     92  63  38 W13G21    29.98F HX  93
HAYWARD        SUNNY     89  61  38 VRB3      30.02F HX  89
SIREN          SUNNY     90  61  37 W7        30.01F HX  89
CUMBERLAND     SUNNY     88  59  37 CALM      30.02F HX  87
RICE LAKE      SUNNY     88  58  36 CALM      30.03S HX  87
CHETEK         SUNNY     90  63  40 CALM      30.01F HX  90
LADYSMITH      SUNNY     89  62  40 CALM      30.03F HX  89
EAU CLAIRE     SUNNY     91  64  40 CALM      29.99F HX  92
MENOMONIE      SUNNY     95  60  30 CALM      30.00F HX  95
NEW RICHMOND   SUNNY     93  52  24 E5        30.00F HX  90
OSCEOLA        SUNNY     91  60  34 CALM      30.02F HX  91
$$

WIZ003>005-009-010-017-018-222100-
NORTH CENTRAL WISCONSIN

CITY           SKY/WX    TMP DP  RH WIND       PRES   REMARKS
MANITOWISH WTR SUNNY     88  59  37 NW6       30.02F HX  87
ARBOR VITAE    SUNNY     90  61  38 NW7       30.02F HX  89
WOODRUFF       SUNNY     90  61  38 NW7       30.02F HX  89
RHINELANDER    SUNNY     90  61  37 W7        30.03F HX  90
EAGLE RIVER    SUNNY     88  55  32 W7        30.01F HX  86
LAND O LAKES   SUNNY     89  47  23 NW10G17   30.02F HX  86
PHILLIPS       SUNNY     87  63  44 W8        30.02F HX  87
TOMAHAWK       SUNNY     88  59  37 CALM      30.02F HX  87
MEDFORD        SUNNY     87  64  46 W7        30.03F HX  87
MERRILL        SUNNY     89  64  44 NW5       30.01F HX  90
$$

WIZ029-030-035-036-043>047-222100-
CENTRAL WISCONSIN

CITY           SKY/WX    TMP DP  RH WIND       PRES   REMARKS
WAUSAU         SUNNY     90  56  31 W8        29.99F HX  88
MOSINEE        SUNNY     90  61  37 NW5       30.02F HX  89
MARSHFIELD     SUNNY     90  63  40 VRB6      30.02F HX  91
STEVENS POINT  SUNNY     87  65  47 W8        30.01F HX  89
WAUPACA        SUNNY     94  60  32 W5        29.99F HX  94
WAUTOMA        SUNNY     90  73  57 W6        30.00F HX  98
WISC RAPIDS    SUNNY     92  63  38 N7        30.02F HX  93
CAMP DOUGLAS   MOSUNNY   91  77  62 CALM      30.00F HX 105
$$

WIZ011>013-019>022-031-037>040-048>050-222100-
NORTHEAST WISCONSIN

CITY           SKY/WX    TMP DP  RH WIND       PRES   REMARKS
ANTIGO         SUNNY     87  64  46 NW3       30.02F HX  89
SHAWANO        SUNNY     92  63  37 W6        29.97F HX  93
OCONTO         SUNNY     90  66  45 NW5       29.95F HX  92
STURGEON BAY   SUNNY     89  66  46 SW7       29.97F HX  91
GREEN BAY      SUNNY     88  70  55 W7        29.98S HX  93
MANITOWOC      SUNNY     84  69  60 MISG      29.99S HX  88
APPLETON       MOSUNNY   88  64  45 SW9       29.99S HX  89
CLINTONVILLE   SUNNY     91  55  29 W7        29.98F HX  89
OSHKOSH        MOSUNNY   89  72  56 VRB6      29.99F HX  96
$$

WIZ032>034-041-042-053>061-222100-
SOUTHWEST WISCONSIN

CITY           SKY/WX    TMP DP  RH WIND       PRES   REMARKS
LA CROSSE      SUNNY     92  76  59 NW5       29.98F HX 104
SPARTA         MOSUNNY   89  76  65 CALM      30.00F HX 100
VIROQUA        PTSUNNY   87  77  73 SW3       30.04S HX  98
BOSCOBEL       MOSUNNY   87  76  69 W7        30.01F HAZE    HX  97
PRAIRIE DU CHI CLOUDY    85  73  66 CALM      30.00F HX  92
PLATTEVILLE    CLOUDY    84  78  81 W3        30.04S HX  94
$$

WIZ056-057-062-063-064-067-068-222100-
SOUTH CENTRAL WISCONSIN

CITY           SKY/WX    TMP DP  RH WIND       PRES   REMARKS
REEDSBURG      PTSUNNY   87  79  76 SW6       30.00F HX 100
BARABOO/DELLS  MOSUNNY   86  74  67 W3        30.02S HX  94
LONE ROCK      PTSUNNY   87  77  72 W5        30.01F HX  99
MINERAL POINT  CLOUDY    86  77  74 W6        30.04F HX  97
MADISON        MOSUNNY   87  75  67 SW3       30.00F HX  96
MIDDLETON      MOSUNNY   90  75  61 CALM      30.02F HX 100
WATERTOWN      MOSUNNY   88  75  66 W5        30.00F HX  98
MONROE         MOSUNNY   86  73  66 SW3       30.03F HX  93
JANESVILLE     PTSUNNY   90  73  58 NW8       30.01F HX  98
$$

WIZ051-052-058>065-066-070>072-222100-
SOUTHEAST WISCONSIN

CITY           SKY/WX    TMP DP  RH WIND       PRES   REMARKS
MILWAUKEE      MOSUNNY   90  71  53 SE9       29.98F HX  96
WAUKESHA       MOSUNNY   88  66  48 NW7       30.02F HX  90
MILWAUKEE/TIMM SUNNY     90  66  45 W5        30.00F HX  92
RACINE         SUNNY     86  69  56 VRB7      30.01F HX  90
BURLINGTON     SUNNY     88  72  58 NW6       30.00F HX  95
KENOSHA        SUNNY     89  72  56 VRB3      30.00F HX  96
FOND DU LAC    SUNNY     90  69  50 W6        30.00F HX  94
SHEBOYGAN      SUNNY     87  74  64 VRB3      29.98F HX  95
WEST BEND      MOSUNNY   90  70  51 NW8       30.00S HX  95
JUNEAU         MOSUNNY   87  73  64 SW3       30.02F HX  94
$$

LSZ147-162-222100-
LAKE SUPERIOR

STATION/POSITION TIME  TEMP    WIND        PRES    WAVE
                       AIR SEA DIR/SP/G            HT/PER
                 (UTC) (F)     (DEG/KT/KT) (MB)    (FT/S)
W MID LAKE BUOY  1850   63 57  230/ 10/ 12 1013.3F   1/ 3
DEVILS ISLAND    2000   74     240/ 18/ 20 1013.9F
SAXON HARBOR     1900   88     260/  5/ 12 1014.9S
$$

LMZ867-665-643>646-222100-
LAKE MICHIGAN

STATION/POSITION TIME  TEMP    WIND        PRES    WAVE
                       AIR SEA DIR/SP/G            HT/PER
                 (UTC) (F)     (DEG/KT/KT) (MB)    (FT/S)
CHAMBERS ISLAND  1900   82     170/  8/ 11 1014.2S
S GREEN BAY BUOY 2000   80 76  180/  6/  8   N/A
N MID LAKE BUOY  1950   72 70  200/ 10/ 12 1013.4F   1/ 5
NORTHPORT PIER   2000          140/  6/ 17 1013.5F
KEWAUNEE LAKESHO 2000   69     180/ 10/ 11 1014.8F
SHEBOYGAN LAKESH 2000   75     170/ 12/ 12 1015.3F
PORT WASHINGTON  1940   81     180/  5/  7 1016.3F
ATWATER BUOY     1900   69 56  190/  4/  6 1017.4F
MILWAUKEE LAKESH 1910   73     190/  3/  3   N/A
S MID LAKE BUOY  1950   73 72  190/  8/  8 1015.1F   1/ 3
KENOSHA   LAKESH 2000   76     150/  6/  7 1015.2F
$$

TC  - TEMPERATURE IN CELSIUS
VSB - VISIBILITY IN STATUTE MILES
WCI - WIND CHILL INDEX
HX  - HEAT INDEX





USA.gov is the U.S. government's official web portal to all federal, state and local government web resources and services.